[[{"header":{"parameterUnit":"m.s-1","parameterCategory":1,"la1":30.2991,"la2":30.254,"lo1":-89.0895,"lo2":-89.0444,"dy":0.0017,"dx":0.0017,"nx":28,"ny":28,"refTime":"2024-12-10T09:00:00:Z","depth":0,"parameterNumber":2,"parameterNumberName":"U-component_of_WINDS"},"data":[0,0,0,0,0,0,0,0,0,0,0,0,0,0,0,0,0,0,0,0,0,0,0,0,0,0,0,0,0,0,0,0,0,0,0,0,0,0,0,0,0,0,0,0,0,0,0,0,0,0,0,0,0,0,0,0,0,0,1.2031,1.2031,0,1.2004,1.2003,1.2003,1.1955,1.1954,1.1953,1.1952,1.1926,1.1927,1.1927,0,0,0,0,0,0,0,0,0,0,0,0,0,1.2045,1.2045,1.2031,1.2031,1.203,1.2004,1.2003,1.2003,1.1955,1.1954,1.1953,1.1952,1.1926,1.1927,1.1927,0,0,0,0,0,0,0,0,0,0,0,0,0,1.203,1.2045,1.2031,1.2003,1.2001,1.2004,1.2003,1.2003,1.1955,1.1954,1.1953,1.1951,1.1926,1.1927,1.1927,1.1956,0,0,1.1928,1.1928,0,0,0,0,0,0,0,0,1.2031,1.203,1.2008,1.2005,1.2002,1.1981,1.1999,1.1987,1.1956,1.1973,1.1952,1.1951,1.1946,1.1945,1.1942,1.1955,1.1953,1.1928,1.1928,1.1928,1.1928,0,0,0,0,0,0,0,1.2032,1.2031,1.202,1.2008,1.2004,1.1993,1.1989,1.1996,1.1967,1.1971,1.1968,1.1965,1.1944,1.1942,1.1942,1.1953,1.1928,1.1928,1.1928,1.1928,1.1989,1.1991,0,0,0,0,0,0,1.2037,1.2032,1.2021,1.2019,1.2013,1.1994,1.199,1.1989,1.1967,1.1962,1.1966,1.1963,1.1943,1.1941,1.194,1.1974,1.1928,1.1928,1.1928,1.1988,1.199,1.1991,0,0,0,0,0,0,1.2037,1.2036,1.2022,1.2025,1.2022,1.1995,1.1995,1.199,1.1988,1.1963,1.1958,1.1969,1.1941,1.194,1.1953,1.1973,1.1928,1.1928,1.1986,1.1989,1.1991,1.2042,0,0,0,0,0,0,1.2038,1.2037,1.2047,1.2025,1.2022,1.2034,1.1996,1.199,1.1988,1.1983,1.1965,1.1961,1.194,1.1953,1.1953,1.1972,1.1929,1.1984,1.1987,1.199,1.2038,1.2046,1.2052,0,0,0,0,0,1.2039,1.2063,1.2048,1.2047,1.2034,1.2036,1.2034,1.2009,1.199,1.2,1.1985,1.1961,1.197,1.1954,1.1954,1.1974,1.1983,1.1986,1.199,1.2035,1.2044,1.2052,0,0,0,0,0,0,1.2088,1.2059,1.2042,1.206,1.205,1.2027,1.204,1.2019,1.2016,1.2012,1.1982,1.1978,1.1995,1.1985,1.1968,1.2002,1.1973,1.1977,1.2008,1.2016,1.2023,1.2025,1.1929,0,0,0,0,0,1.21,1.2103,1.2078,1.2096,1.2092,1.2067,1.2067,1.2049,1.2038,1.2034,1.2019,1.2011,1.2012,1.2013,1.2012,1.2036,1.2032,1.205,1.2057,1.2062,1.2066,1.208,1.2088,1.2002,1.2002,1.2002,0,0,1.2127,1.2112,1.2115,1.2106,1.2096,1.2101,1.2064,1.207,1.2074,1.2035,1.2046,1.2035,1.2024,1.2043,1.205,1.2035,1.2089,1.2067,1.2071,1.2072,1.2084,1.2093,1.21,1.2005,1.2004,1.2004,0,0,1.2178,1.2166,1.2181,1.2172,1.2158,1.2141,1.2145,1.2125,1.2116,1.2127,1.2098,1.2103,1.2104,1.2098,1.2095,1.2145,1.2124,1.2145,1.2181,1.2195,1.2202,1.2208,1.2227,1.2234,1.2149,1.2149,1.2149,0,1.2214,1.2219,1.2191,1.2199,1.2197,1.2161,1.2176,1.2169,1.2157,1.2156,1.2139,1.2142,1.2131,1.2149,1.2161,1.2159,1.2163,1.2148,1.2203,1.2208,1.2213,1.2232,1.2239,1.2152,1.2151,1.2151,1.2151,0,1.2264,1.2268,1.2281,1.227,1.2268,1.228,1.2255,1.2257,1.2239,1.2225,1.2237,1.2223,1.222,1.2222,1.2205,1.2238,1.2229,1.2208,1.2179,1.2225,1.2242,1.2249,1.2156,1.2155,1.2154,1.2153,0,0,1.2346,1.2319,1.2324,1.2319,1.2302,1.2305,1.2316,1.2312,1.2315,1.2308,1.2317,1.232,1.23,1.2297,1.2278,1.229,1.2333,1.2267,1.2267,1.2282,1.2371,1.2389,1.2397,1.2318,1.2319,1.232,1.2373,0,1.2395,1.2411,1.2387,1.2409,1.2414,1.238,1.239,1.2381,1.2368,1.2371,1.2356,1.2359,1.2332,1.233,1.234,1.2326,1.2351,1.2321,1.2328,1.2329,1.2334,1.2406,1.2424,1.2474,1.2379,1.238,1.2381,0,1.2454,1.2449,1.2473,1.2455,1.2456,1.2465,1.2461,1.2463,1.2453,1.2442,1.2439,1.2417,1.2427,1.2398,1.2413,1.2394,1.2395,1.2388,1.239,1.2391,1.2359,1.2411,1.2489,1.2498,1.239,1.239,1.2389,0,1.2514,1.2513,1.2528,1.2524,1.2503,1.2511,1.2503,1.2491,1.2491,1.2487,1.2487,1.2484,1.2484,1.2483,1.2461,1.2441,1.248,1.2448,1.2473,1.2474,1.2484,1.2484,1.2566,1.2482,1.2482,1.2481,1.2481,0,1.2572,1.2588,1.2554,1.2563,1.2581,1.2553,1.2571,1.2559,1.2549,1.2556,1.2527,1.2534,1.2504,1.2509,1.2492,1.2508,1.2508,1.2501,1.2497,1.2505,1.2506,1.2506,1.2503,1.2483,1.2483,1.2483,1.2482,0,1.2643,1.262,1.2634,1.2613,1.2609,1.2623,1.2605,1.2614,1.2598,1.2608,1.2608,1.2585,1.2589,1.2567,1.2566,1.2555,1.2581,1.2569,1.2584,1.2582,1.2609,1.2607,1.2695,1.2706,1.2614,1.2615,1.2615,0,1.2682,1.2694,1.2675,1.2677,1.267,1.2674,1.2674,1.2647,1.2649,1.2638,1.2648,1.265,1.265,1.2658,1.2641,1.2641,1.2631,1.2662,1.2631,1.2639,1.2634,1.2634,1.2636,1.2669,1.267,1.2671,1.2672,0,1.2755,1.2744,1.2745,1.2742,1.2743,1.2739,1.2734,1.2738,1.2709,1.2712,1.2716,1.2716,1.2716,1.2718,1.2715,1.2708,1.2686,1.2682,1.2688,1.2697,1.2706,1.2704,1.2604,1.268,1.2679,1.2679,1.2678,1.2678,1.2813,1.2822,1.2811,1.2813,1.2806,1.2802,1.2809,1.2795,1.2797,1.2795,1.2779,1.2786,1.2777,1.2771,1.2765,1.2771,1.2757,1.2765,1.2767,1.2771,1.2776,1.2704,1.277,1.277,1.277,1.277,1.2769,0,1.2886,1.2877,1.2879,1.2873,1.2875,1.2853,1.2847,1.285,1.2857,1.2849,1.285,1.2855,1.2858,1.2842,1.2842,1.285,1.284,1.2851,1.2852,1.2851,1.2788,1.2784,1.286,1.286,1.286,1.286,1.2859,1.2859,1.2925,1.294,1.2928,1.294,1.2931,1.2937,1.2936,1.2932,1.2927,1.2934,1.2936,1.2925,1.2914,1.2914,1.2916,1.2911,1.2914,1.2929,1.2921,1.2863,1.2855,1.2846,1.2842,1.2929,1.2929,1.2983,1.2984,1.2984]},{"header":{"parameterUnit":"m.s-1","parameterCategory":1,"la1":30.2991,"la2":30.254,"lo1":-89.0895,"lo2":-89.0444,"dy":0.0017,"dx":0.0017,"nx":28,"ny":28,"refTime":"2024-12-10T09:00:00:Z","depth":0,"parameterNumber":3,"parameterNumberName":"V-component_of_WINDS"},"data":[0,0,0,0,0,0,0,0,0,0,0,0,0,0,0,0,0,0,0,0,0,0,0,0,0,0,0,0,0,0,0,0,0,0,0,0,0,0,0,0,0,0,0,0,0,0,0,0,0,0,0,0,0,0,0,0,0,0,4.0569,4.057,0,4.0694,4.0695,4.0696,4.0697,4.0695,4.0693,4.0692,4.0821,4.0826,4.083,0,0,0,0,0,0,0,0,0,0,0,0,0,4.0335,4.0339,4.0569,4.0571,4.0572,4.0693,4.0695,4.0697,4.0697,4.0695,4.0693,4.0691,4.0819,4.0825,4.0831,0,0,0,0,0,0,0,0,0,0,0,0,0,4.0446,4.034,4.0569,4.0587,4.059,4.0693,4.0695,4.0697,4.0697,4.0695,4.0692,4.069,4.0817,4.0824,4.0832,4.0926,0,0,4.0854,4.0857,0,0,0,0,0,0,0,0,4.0439,4.0454,4.0583,4.0586,4.0589,4.0677,4.066,4.0774,4.0698,4.0656,4.0692,4.0689,4.0775,4.0786,4.0814,4.0932,4.0937,4.0855,4.0859,4.0863,4.0865,0,0,0,0,0,0,0,4.0432,4.0449,4.0618,4.0584,4.0588,4.059,4.0603,4.0681,4.0728,4.066,4.066,4.0675,4.0776,4.0807,4.0817,4.0939,4.0855,4.0861,4.0866,4.0869,4.1144,4.1147,0,0,0,0,0,0,4.042,4.0442,4.0614,4.0622,4.0507,4.0596,4.061,4.0651,4.0727,4.0736,4.0677,4.0674,4.0796,4.0809,4.0822,4.094,4.0863,4.087,4.0874,4.1141,4.1145,4.1148,0,0,0,0,0,0,4.0415,4.0435,4.0609,4.0532,4.0555,4.0602,4.0648,4.0655,4.0686,4.074,4.0748,4.07,4.0794,4.0812,4.0901,4.0945,4.0873,4.088,4.1138,4.1142,4.1146,4.1176,0,0,0,0,0,0,4.0408,4.0433,4.0469,4.0533,4.0559,4.0685,4.0651,4.0659,4.0699,4.0697,4.0764,4.0772,4.0794,4.089,4.0908,4.0954,4.0885,4.1134,4.114,4.1145,4.1171,4.1181,4.1189,0,0,0,0,0,4.04,4.0472,4.0471,4.0491,4.0604,4.0688,4.0703,4.0725,4.0702,4.0739,4.0774,4.077,4.0936,4.0899,4.092,4.0968,4.1132,4.1138,4.1145,4.1167,4.1179,4.1189,0,0,0,0,0,0,4.0411,4.048,4.048,4.0574,4.0625,4.0688,4.0735,4.0736,4.0795,4.0791,4.0817,4.0832,4.0922,4.0953,4.0911,4.1065,4.1031,4.1042,4.1042,4.1053,4.1061,4.1053,4.0892,0,0,0,0,0,4.0424,4.0486,4.0543,4.0621,4.0647,4.0687,4.0724,4.0737,4.0791,4.0813,4.0854,4.0907,4.0972,4.1013,4.1075,4.1175,4.1191,4.1219,4.1227,4.1234,4.1244,4.1303,4.1317,4.1169,4.1169,4.1169,0,0,4.0453,4.0499,4.0536,4.0625,4.0666,4.0731,4.0705,4.0773,4.0822,4.0823,4.0911,4.0943,4.1004,4.11,4.1144,4.1129,4.1288,4.1242,4.1248,4.1254,4.1311,4.1325,4.1337,4.1174,4.1173,4.1172,0,0,4.0539,4.0578,4.0649,4.0691,4.0754,4.078,4.0797,4.086,4.0881,4.097,4.0973,4.1031,4.1141,4.1185,4.1222,4.1327,4.1327,4.1346,4.1393,4.145,4.1462,4.1472,4.1513,4.1527,4.1356,4.1356,4.1356,0,4.0567,4.0664,4.0686,4.0756,4.0797,4.08,4.0874,4.0913,4.0993,4.1022,4.1003,4.1143,4.1184,4.1292,4.1318,4.1346,4.1369,4.134,4.1458,4.1469,4.1479,4.1518,4.1533,4.1358,4.1358,4.1357,4.1357,0,4.0697,4.0765,4.0815,4.0893,4.0938,4.1009,4.1044,4.1087,4.1097,4.1126,4.1217,4.1267,4.134,4.1366,4.1376,4.1477,4.1466,4.1452,4.142,4.1495,4.1533,4.1547,4.1361,4.136,4.136,4.1359,0,0,4.0795,4.0884,4.0903,4.094,4.1009,4.1063,4.1135,4.1207,4.1246,4.1301,4.1364,4.1458,4.1446,4.1488,4.1503,4.1552,4.1637,4.1533,4.1535,4.1554,4.1755,4.1767,4.1784,4.1636,4.1639,4.1641,4.1751,0,4.0891,4.1019,4.1042,4.1155,4.122,4.1225,4.1288,4.1339,4.1368,4.1428,4.1459,4.1527,4.1505,4.1531,4.158,4.1616,4.1678,4.1608,4.1698,4.1701,4.1686,4.1803,4.1816,4.1917,4.1766,4.1768,4.177,0,4.102,4.108,4.1199,4.1264,4.1292,4.1348,4.1418,4.1474,4.1532,4.155,4.1598,4.1607,4.1685,4.1647,4.1755,4.1707,4.1745,4.1769,4.1773,4.1785,4.1742,4.1821,4.195,4.1966,4.1792,4.1791,4.1789,0,4.1084,4.1193,4.128,4.1311,4.1387,4.1427,4.1461,4.1517,4.156,4.162,4.1649,4.1717,4.1756,4.1809,4.1838,4.1807,4.1946,4.1909,4.1965,4.1965,4.1996,4.1995,4.2136,4.2015,4.2015,4.2015,4.2014,0,4.119,4.1264,4.131,4.1364,4.1448,4.1473,4.1556,4.1589,4.1639,4.1701,4.1708,4.1766,4.1798,4.1861,4.1884,4.1973,4.1989,4.2007,4.2013,4.2008,4.2007,4.2036,4.2031,4.2019,4.2018,4.2017,4.2016,0,4.1276,4.1309,4.1405,4.147,4.1488,4.1547,4.1603,4.1656,4.1685,4.1763,4.1783,4.1829,4.1903,4.1937,4.2028,4.2044,4.2146,4.2145,4.2127,4.2129,4.2185,4.218,4.2352,4.2378,4.2237,4.2238,4.2239,0,4.1344,4.1401,4.1472,4.1514,4.1549,4.1616,4.1661,4.1688,4.1734,4.1806,4.1852,4.1927,4.1989,4.2108,4.215,4.2221,4.2224,4.2279,4.2235,4.223,4.2229,4.2227,4.2234,4.2288,4.229,4.2291,4.2292,0,4.1462,4.1476,4.1539,4.1609,4.1662,4.1718,4.1774,4.1808,4.1844,4.1896,4.1973,4.2021,4.2115,4.2191,4.2265,4.2301,4.2304,4.2305,4.2323,4.232,4.2309,4.232,4.2152,4.2302,4.2301,4.23,4.2299,4.2299,4.1543,4.1596,4.1655,4.1726,4.1771,4.1823,4.1877,4.1913,4.1978,4.2057,4.2069,4.2152,4.2212,4.2311,4.235,4.2416,4.2403,4.2427,4.2434,4.244,4.2446,4.2296,4.2429,4.2429,4.2429,4.2429,4.2428,0,4.1664,4.1703,4.1768,4.1846,4.1903,4.1899,4.1961,4.2009,4.2082,4.2137,4.2198,4.2288,4.2361,4.2409,4.2484,4.2528,4.2532,4.2547,4.2546,4.2555,4.2451,4.2431,4.2544,4.2544,4.2544,4.2544,4.2544,4.2543,4.1734,4.1824,4.1846,4.1959,4.1997,4.2079,4.2115,4.2164,4.2208,4.2308,4.237,4.24,4.2453,4.2532,4.2601,4.2613,4.2642,4.2659,4.2671,4.2574,4.2562,4.2551,4.2531,4.2664,4.2664,4.277,4.2771,4.2771]}]]